Regional Weather Roundup
Issued by NWS

Home | Current Version | Previous Version | Text Only | Print | Product List | Glossary On
Versions: 1 2 3 4 5 6 7 8 9 10 11 12 13 14 15 16 17 18 19 20 21 22 23 24 25 26 27 28 29 30 31 32 33 34 35 36 37 38 39 40 41 42 43 44 45 46 47 48 49 50
000
ASUS43 KDMX 201407
RWRIA

WEATHER ROUNDUP FOR IOWA
NATIONAL WEATHER SERVICE DES MOINES IA
800 AM CST SAT DEC 20 2014

NOTE: "FAIR" INDICATES FEW OR NO CLOUDS BELOW 12,000 FEET WITH NO
SIGNIFICANT WEATHER AND/OR OBSTRUCTIONS TO VISIBILITY.

* - THESE STATIONS ARE NOT NWS STATIONS...THUS NOT UNDER NWS
QUALITY CONTROL.  THEY ALSO DO NOT REPORT WEATHER SUCH
AS PRECIPITATION OR FOG.

IAZ001>003-012>014-020>022-031>034-043>046-201500-
   NORTHWEST IOWA

CITY           SKY/WX    TMP DP  RH WIND       PRES   REMARKS
CARROLL *      CLOUDY    30  30 100 SE8       30.13S FOG     WCI  23
CHEROKEE *     CLOUDY    30  30 100 S9        30.12R FOG     WCI  22
DENISON *      CLOUDY    30  30 100 S10       30.10S FOG     WCI  21
LE MARS *      CLOUDY    32  32 100 SE7       30.10F FOG     WCI  26
ORANGE CITY *  CLOUDY    30  30 100 SE7       30.08F FOG     WCI  23
SHELDON *      CLOUDY    30  30 100 S10       30.08S FOG     WCI  21
SIOUX CITY     CLOUDY    32  30  92 S7        30.11R FOG     WCI  26
SPENCER        CLOUDY    29  27  92 S10       30.11R WCI  20
STORM LAKE *   CLOUDY    28  28 100 S10       30.11F WCI  19
$$

IAZ055>058-069>071-079>083-090>094-201500-
   SOUTHWEST IOWA

CITY           SKY/WX    TMP DP  RH WIND       PRES   REMARKS
ATLANTIC *     CLOUDY    32  32 100 S7        30.13S FOG     WCI  26
AUDUBON *      CLOUDY    30  25  80 S5        30.13F HAZE    WCI  25
CLARINDA *     CLOUDY    32  32 100 S6        30.16S FOG     WCI  26
COUNCIL BLFS * FOG       32  32 100 S9        30.10S VSB 1   WCI  24
CRESTON *      CLOUDY    30  30 100 S9        30.14S FOG     WCI  22
HARLAN  *      CLOUDY    30  30 100 S7        30.15F FOG     WCI  23
LAMONI         CLOUDY    31  30  96 S9        30.16S FOG     WCI  23
RED OAK *      CLOUDY    32  32 100 S7        30.13F FOG     WCI  26
SHENANDOAH *   CLOUDY    32  32 100 SE8       30.14S FOG     WCI  25
$$

IAZ047>049-059>061-072>074-084-201500-
   CENTRAL IOWA

CITY           SKY/WX    TMP DP  RH WIND       PRES   REMARKS
AMES           CLOUDY    30  28  92 SW6       30.18R FOG     WCI  24
ANKENY *       CLOUDY    30  30 100 CALM      30.18S
CHARITON *     CLOUDY    32  32 100 S5        30.18S WCI  27
DES MOINES     CLOUDY    32  28  85 S5        30.18R WCI  27
GRINNELL*      MIX PCPN  30  30 100 SE6       30.19S WCI  24
KNOXVILLE *    FOG       32  32 100 CALM      30.17S VSB 1/2
MARSHALLTOWN   CLOUDY    30  29  96 SE8       30.17S FOG     WCI  22
PELLA *        FOG       32  32 100 S3        30.20S VSB 1/2
PERRY *        CLOUDY    30  30 100 SE6       30.16S FOG     WCI  24
$$

IAZ004>006-015-016-023>025-035-036-201500-
   NORTH CENTRAL IOWA

CITY           SKY/WX    TMP DP  RH WIND       PRES   REMARKS
ALGONA *       CLOUDY    28  28 100 SE7       30.14S WCI  21
CLARION *      CLOUDY    30  30 100 S6        30.15F FOG     WCI  24
ESTHERVILLE    CLOUDY    28  27  96 S7        30.11S WCI  21
FORT DODGE *   CLOUDY    28  25  86 CALM      30.15S
MASON CITY     FOG       29  28  96 SE8       30.17S VSB 3/4 WCI  21
FOREST CITY *  CLOUDY    30  30 100 S6        30.15S FOG     WCI  24
IOWA FALLS *   CLOUDY    30  30 100 SE7       30.17S FOG     WCI  23
$$

IAZ007>011-017>019-026>030-037>042-050>054-066-201500-
   NORTHEAST IOWA

CITY           SKY/WX    TMP DP  RH WIND       PRES   REMARKS
CEDAR RAPIDS   CLOUDY    29  27  92 SE5       30.20F FOG     WCI  24
CHARLES CITY * FOG       28  28 100 SE8       30.18S VSB 1/2 WCI  20
CLINTON *      CLOUDY    28  25  86 E7        30.27F WCI  21
DECORAH *      CLOUDY    27  27 100 S8        30.18F FOG     WCI  18
DUBUQUE        CLOUDY    27  24  89 SE5       30.22S FOG     WCI  22
MONTICELLO *   CLOUDY    28  28 100 SE8       30.22F WCI  20
OELWEIN *      FOG       28  28 100 SE9       30.19F VSB 1/2 WCI  20
WATERLOO       CLOUDY    29  28  96 S7        30.19F FOG     WCI  22
$$

IAZ064-065-067-068-078-201500-
   EAST CENTRAL IOWA

CITY           SKY/WX    TMP DP  RH WIND       PRES   REMARKS
DAVENPORT      CLOUDY    29  23  78 SE7       30.24S HAZE    WCI  22
IOWA CITY      CLOUDY    30  27  88 SE6       30.24S WCI  24
MT. PLEASANT * CLOUDY    30  28  93 SE5       30.22S FOG     WCI  25
MUSCATINE *    CLOUDY    32  27  80 SE5       30.24S WCI  27
QUAD CITIES    CLOUDY    30  25  81 E5        30.24F HAZE    WCI  25
$$

IAZ062-063-075>077-085>089-095>099-201500-
   SOUTHEAST IOWA

CITY           SKY/WX    TMP DP  RH WIND       PRES   REMARKS
BURLINGTON     CLOUDY    32  27  81 S3        30.23S
FAIRFIELD *    CLOUDY    32  28  86 S6        30.21S FOG     WCI  26
FORT MADISON * CLOUDY    34  30  86 CALM      30.23S
KEOKUK *       CLOUDY    32  28  86 SE3       30.22S
OSKALOOSA *    CLOUDY    30  30 100 SE5       30.20S FOG     WCI  25
CENTERVILLE *  CLOUDY    32  32 100 S3        30.19S FOG
OTTUMWA        CLOUDY    31  30  96 S6        30.20R FOG     WCI  25
WASHINGTON *   CLOUDY    32  32 100 S5        30.22R FOG     WCI  27
$$

ABBREVIATIONS USED IN REMARKS
   TC - TEMPERATURES IN CELSIUS
  WCI - WIND CHILL INDEX
   HX - HEAT INDEX
  VSB - VISIBILITY
$$




USA.gov is the U.S. government's official web portal to all federal, state and local government web resources and services.